EHI
0 0 0 0 0 0 0 0 0 0 0 0 0 0 0 0 0 0 0 0 0 0 0 0 0 0 0 0 0 0 0 0 0 0 0 0 0 0 0 0 0 0 0
0 0 0 0 0 0 0 0 0 0 0 0 0 0 0 0 0 0 0 0 0 0 0 0 0 0 0 0 0 0 0 0 0 0 0 0 0 0 0 0 0 0 0
0 0 0 0 0 0 0 0 0 0 0 0 0 0 0 0 0 0 0 0 0 0 0 0 0 0 0 0 0 0 0 0 0 0 0 0 0 0 0 0 0 0 0
0 0 0 0 0 0 0 0 0 0 0 0 0 0 0 0 0 0 0 0 0 0 0 0 0 0 0 0 0 0 0 0 0 0 0 0 0 0 0 0 0 0 0
0 0 0 0 0 0 0 0 0 0 0 0 0 0 0 0 0 0 0 0 0 0 0 0 0 0 0 0 0 0 0 0 0 0 0 0 0 0 0 0 0 0 0
0 0 0 0 0 0 0 0 0 0 0 0 0 0 0 0 0 0 0 0 0 0 0 0 0 0 0 0 0 0 0 0 0 0 0 0 0 0 0 0 0 0 0
0 0 0 0 0 0 0 0 0 0 0 0 0 0 0 0 0 0 0 0 0 0 0 0 0 0 0 0 0 0 0 0 0 0 0 0 0 0 0 0 0 0 0
0 0 0 0 0 0 0 0 0 0 0 0 0 0 0 0 0 0 0 0 0 0 0 0 0 0 0 0 0 0 0 0 0 0 0 0 0 0 0 0 0 0 0
0 0 0 0 0 0 0 0 0 0 0 0 0 0 0 0 0 0 0 0 0 0 0 0 0 0 0 0 0 0 0 0 0 0 0 0 0 0 0 0 0 0 0
0 0 0 0 0 0 0 0 0 0 0 0 0 0 0 0 0 0 0 0 0 0 0 0 0 0 0 0 0 0 0 0 0 0 0 0 0 0 0 0 0 0 0
0 0 0 0 0 0 0 0 0 0 0 0 0 0 0 0 0 0 0 0 0 0 0 0 0 0 0 0 0 0 0 0 0 0 0 0 0 0 0 0 0 0 0
0 0 0 0 0 0 0 0 0 0 0 0 0 0 0 0 0 0 0 0 0 0 0 0 0 0 0 0 0 0 0 0 0 0 0 0 0 0 0 0 0 0 0
0 0 0 0 0 0 0 0 0 0 0 0 0 0 0 0 0 0 0 0 0 0 0 0 0 0 0 0 0 0 0 0 0 0 0 0 0 0 0 0 0 0 0
0 0 0 0 0 0 0 0 0 0 0 0 0 0 0 0 0 0 0 0 0 0 0 0 0 0 0 0 0 0 0 0 0 0 0 0 0 0 0 0 0 0 0
0 0 0 0 0 0 0 0 0 0 0 0 0 0 0 0 0 0 0 0 0 0 0 0 0 0 0 0 0 0 0 0 0 0 0 0 0 0 0 0 0 0 0
0 0 0 0 0 0 0 0 0 0 0 0 0 0 0 0 0 0 0 0 0 0 0 0 0 0 0 0 0 0 0 0 0 0 0 0 0 0 0 0 0 0 0
0 0 0 0 0 0 0 0 0 0 0 0 0 0 0 0 0 0 0 0 0 0 0 0 0 0 0 0 0 0 0 0 0 0 0 0 0 0 0 0 0 0 0
0 0 0 0 0 0 0 0 0 0 0 0 0 0 0 0 0 0 0 0 0 0 0 0 0 0 0 0 0 0 0 0 0 0 0 0 0 0 0 0 0 0 0
0 0 0 0 0 0 0 0 0 0 0 0 0 0 0 0 0 0 0 0 0 0 0 0 0 0 0 0 0 0 0 0 0 0 0 0 0 0 0 0 0 0 0
0 0 0 0 0 0 0 0 0 0 0 0 0 0 0 0 0 0 0 0 0 0 0 0 0 0 0 0 0 0 0 0 0 0 0 0 0 0 0 0 0 0 0
0 0 0 0 0 0 0 0 0 0 0 0 0 0 0 0 0 0 0 0 0 0 0 0 0 0 0 0 0 0 0 0 0 0 0 0 0 0 0 0 0 0 0
0 0 0 0 0 0 0 0 0 0 0 0 0 0 0 0 0 0 0 0 0 0 0 0 0 0 0 0 0 0 0 0 0 0 0 0 0 0 0 0 0 0 0
0 0 0 0 0 0 0 0 0 0 0 0 0 0 0 0 0 0 0 0 0 0 0 0 0 0 0 0 0 0 0 0 0 0 0 0 0 0 0 0 0 0 0
0 0 0 0 0 0 0 0 0 0 0 0 0 0 0 0 0 0 0 0 0 0 0 0 0 0 0 0 0 0 0 0 0 0 0 0 0 0 0 0 0 0 0
0 0 0 0 0 0 0 0 0 0 0 0 0 0 0 0 0 0 0 0 0 0 0 0 0 0 0 0 0 0 0 0 0 0 0 0 0 0 0 0 0 0 0
0 0 0 0 0 0 0 0 0 0 0 0 0 0 0 0 0 0 0 0 0 0 0 0 0 0 0 0 0 0 0 0 0 0 0 0 0 0 0 0 0 0 0
Wind_Speed
8 8 8 8 8 8 7 6 5 5 4 3 2 2 2 2 3 3 3 3 3 4 4 4 5 5 4 4 4 4 5 5 10 8 4 5 6 8 10 8 9 9 10
8 9 8 8 8 7 7 5 5 5 4 4 3 4 5 6 6 5 5 5 4 4 5 5 6 6 6 5 5 6 6 6 7 12 7 5 7 8 9 10 10 10 8
9 9 8 8 7 7 6 5 5 5 4 5 5 6 6 5 5 4 4 4 4 4 5 6 7 7 7 7 7 7 6 7 7 9 10 6 6 7 8 10 11 9 10
9 9 8 7 6 6 5 5 5 5 5 5 5 5 5 4 4 3 3 3 5 6 6 6 7 7 8 8 7 7 7 7 8 8 9 8 8 8 7 8 9 7 9
9 8 7 6 5 5 5 5 5 4 5 4 5 4 3 2 1 2 3 4 5 7 7 8 8 12 14 11 9 8 8 7 8 8 9 9 8 7 7 7 9 8 9
8 7 5 5 5 5 4 4 4 5 5 5 4 3 1 1 2 4 5 5 6 7 8 9 10 10 13 16 18 18 16 12 10 9 8 9 9 8 7 7 8 8 7
7 6 5 4 4 4 5 6 5 5 4 4 3 2 2 3 4 5 9 6 6 7 8 8 9 10 12 8 13 17 16 17 17 11 10 9 9 8 8 9 8 8 8
5 4 4 5 6 6 6 5 4 3 3 2 2 2 2 3 4 6 10 7 7 7 8 8 9 9 9 10 10 11 10 10 11 8 8 9 9 8 8 8 8 8 7
4 4 5 6 6 5 5 4 3 2 2 2 2 3 3 4 5 7 9 6 6 8 9 9 9 8 12 13 10 10 11 9 10 11 11 10 11 11 8 5 5 6 5
5 5 5 5 5 4 3 2 2 2 2 3 4 4 4 3 5 8 10 4 6 8 8 8 10 10 14 14 9 8 9 9 9 9 8 8 6 6 7 5 5 5 4
5 5 4 4 4 3 2 2 3 3 4 4 4 4 4 4 6 10 12 5 6 8 7 7 7 13 14 14 10 6 9 10 7 7 6 5 5 4 4 4 4 4 4
5 5 4 3 3 3 3 3 3 4 4 4 4 5 4 5 6 10 14 12 11 7 7 6 8 14 14 13 9 9 11 9 5 5 4 4 4 4 4 4 4 4 3
3 3 2 3 2 3 3 3 3 3 3 3 3 4 5 5 6 11 14 15 15 7 6 11 13 13 11 8 10 11 8 5 4 4 4 4 4 5 5 4 4 4 4
3 2 2 2 2 2 2 3 2 2 2 3 3 4 5 5 5 7 8 8 10 9 7 9 11 10 8 8 8 7 5 4 4 4 4 4 4 4 4 4 3 4 3
2 1 2 2 2 2 1 2 2 2 2 0 2 3 5 5 7 12 8 6 6 7 7 4 4 5 6 6 6 6 5 5 5 5 4 4 4 4 4 4 4 4 4
2 1 1 2 2 2 1 1 0 2 2 2 3 4 4 6 10 12 13 12 12 13 6 5 5 5 6 6 6 6 5 5 5 4 4 4 4 5 5 4 4 5 5
2 2 2 2 2 2 1 1 1 2 3 4 6 8 8 9 11 13 14 12 10 10 5 5 5 6 6 6 6 6 5 6 5 4 4 4 4 5 4 5 5 6 6
2 2 3 2 2 2 2 1 1 1 2 3 5 7 10 11 10 12 13 9 6 7 5 6 6 6 6 6 6 6 6 6 5 5 4 4 4 4 5 5 6 7 7
2 1 2 2 2 2 2 2 2 1 2 2 4 5 8 9 8 9 9 5 5 6 6 6 6 6 6 6 7 7 6 6 6 5 4 4 3 4 4 5 6 8 7
1 2 3 3 2 2 2 2 1 1 2 2 3 4 6 5 4 6 5 5 5 5 6 6 6 6 6 6 7 7 7 6 7 5 4 3 3 3 4 5 5 6 6
2 2 4 3 2 2 2 1 1 1 1 2 2 4 6 4 4 5 5 5 5 5 6 6 6 6 6 6 7 7 8 6 6 5 4 3 2 2 2 3 4 5 6
3 3 2 2 2 2 2 1 1 1 1 1 2 4 7 4 4 5 5 5 5 4 5 5 5 5 5 6 6 7 7 7 7 7 5 3 2 2 3 3 4 4 5
4 4 3 2 2 3 3 2 2 2 1 1 2 3 4 4 5 5 5 5 5 5 5 5 5 5 6 5 5 5 5 6 6 6 5 4 3 2 2 3 4 4 5
4 4 4 3 3 3 3 2 2 2 2 2 2 3 4 4 5 5 5 5 5 5 5 5 5 7 10 8 6 5 5 6 6 4 4 4 4 4 4 4 5 6 6
5 4 4 3 3 3 2 2 3 3 3 3 3 3 4 4 5 6 6 5 6 6 7 7 6 7 10 11 10 9 10 9 8 5 4 4 5 5 5 5 5 5 5
4 4 4 3 3 3 3 3 3 3 3 3 3 3 4 5 5 6 6 6 6 6 7 7 9 10 11 10 11 12 10 10 9 9 5 4 5 5 5 4 5 4 5
Wind_Direction
90 93 95 94 96 95 94 96 99 96 94 86 77 63 40 23 19 31 24 17 10 354 348 337 316 304 293 289 280 270 263 261 281 286 257 264 269 273 283 280 278 274 276
96 92 89 88 89 91 91 89 87 80 68 65 60 59 62 64 60 55 35 22 10 350 334 325 312 310 300 288 278 271 267 260 269 286 284 272 265 266 270 274 283 282 274
93 90 84 81 80 80 76 70 66 64 56 53 60 75 86 83 69 53 33 7 347 327 315 307 299 298 293 288 281 275 271 273 264 275 283 275 270 271 276 278 276 274 277
86 83 78 74 73 71 67 60 56 58 61 64 76 91 98 93 76 45 15 350 331 316 305 295 290 287 283 283 284 276 277 276 272 273 278 278 275 271 267 273 280 272 273
83 78 73 68 61 54 51 54 54 54 61 70 86 92 94 101 69 32 350 336 322 313 308 300 297 305 308 308 307 298 291 284 281 278 279 281 280 278 272 269 276 278 273
81 77 67 58 54 54 52 51 53 52 56 63 69 73 41 3 324 338 342 322 312 307 305 304 305 306 312 317 315 312 306 298 293 286 283 282 284 279 278 277 279 282 280
72 68 62 61 63 61 66 62 58 58 62 61 52 38 350 308 311 332 338 330 310 302 300 303 309 311 314 308 311 313 308 303 298 292 288 287 287 286 285 284 280 281 280
71 64 69 79 82 76 71 62 55 53 54 44 20 1 344 329 337 344 339 331 310 303 301 299 299 303 308 312 311 307 304 301 299 296 285 286 287 287 285 286 288 286 276
76 76 89 97 96 84 71 56 48 51 35 13 6 7 5 349 356 347 344 321 310 308 305 304 305 305 307 313 313 310 309 307 311 307 298 293 292 294 296 293 290 292 294
86 86 96 106 104 95 83 60 37 49 31 20 17 12 16 358 344 343 344 321 315 315 311 311 312 311 313 316 314 310 311 314 316 318 316 315 311 307 314 308 309 306 303
100 93 95 110 112 105 75 49 43 45 36 24 16 2 358 348 339 339 341 332 317 314 313 316 315 318 320 321 319 306 305 308 310 312 314 315 316 316 316 315 313 310 309
109 102 100 106 106 95 82 57 47 48 38 18 3 351 337 332 336 334 335 333 328 313 309 312 314 320 325 327 328 324 325 324 316 319 323 326 325 326 322 317 312 312 310
118 118 113 97 85 95 99 84 56 43 37 8 355 341 328 326 329 335 333 331 332 328 311 319 326 331 334 331 330 335 337 333 327 327 328 324 320 322 325 323 320 314 309
133 148 148 124 99 90 98 104 94 61 32 5 351 336 325 324 331 336 330 327 331 334 327 325 328 334 342 337 334 336 335 331 330 327 327 321 324 337 344 339 335 340 337
126 148 142 136 137 132 125 148 146 181 181 174 319 313 319 325 324 327 330 329 332 330 326 329 343 342 346 343 340 338 338 340 340 337 338 344 352 358 356 350 354 358 8
104 110 131 141 145 149 132 37 263 211 227 263 310 325 308 313 329 341 347 348 349 350 354 346 345 346 344 343 342 339 335 340 340 345 351 360 6 8 9 7 10 18 22
120 134 134 140 143 153 153 145 317 319 308 310 321 338 346 346 352 353 351 345 352 1 5 350 348 346 343 342 342 342 344 344 347 355 4 8 15 17 19 22 23 28 32
113 123 135 139 142 134 130 128 121 60 353 336 329 340 351 353 354 355 352 354 359 4 357 350 346 344 344 345 345 345 346 348 354 0 4 12 21 25 29 32 33 36 38
107 110 124 129 131 127 120 103 86 67 25 352 342 342 345 344 344 354 358 3 353 351 351 348 344 344 346 347 347 347 349 352 356 1 7 13 21 32 39 38 40 37 43
126 135 135 128 122 119 113 107 86 56 30 5 355 346 340 348 355 353 354 350 351 350 347 345 345 347 348 348 347 350 352 355 358 1 0 7 18 38 50 49 46 48 50
161 147 131 119 129 143 141 133 119 95 42 2 342 346 356 352 349 348 348 347 346 344 344 343 345 347 348 346 347 350 351 351 353 353 353 352 6 32 51 62 61 61 62
132 130 122 122 120 121 127 118 109 92 53 25 349 351 359 0 352 349 347 345 342 340 338 338 340 340 339 341 343 345 345 346 348 347 346 349 11 40 56 70 73 70 70
110 112 106 103 104 98 87 79 86 82 63 34 10 2 360 358 355 354 351 347 346 347 345 345 345 345 342 338 337 335 333 328 321 320 331 354 28 50 63 72 83 86 82
103 106 104 100 95 93 91 79 71 70 66 52 30 14 6 1 359 358 356 351 352 352 351 352 353 351 348 347 343 338 331 321 315 315 339 18 40 51 64 73 79 90 92
99 100 97 97 99 98 89 76 68 63 56 49 37 21 11 8 5 3 0 359 1 5 5 2 359 356 350 348 349 344 337 341 350 353 5 34 49 55 64 73 82 92 98
96 99 96 92 88 89 89 84 74 68 59 50 42 31 20 15 12 9 7 10 10 9 7 3 359 0 358 353 347 344 346 354 2 10 22 40 50 54 60 66 77 85 95